Regional Weather Roundup
Issued by NWS Lake Charles, LA

Home | Current Version | Previous Version | Text Only | Print | Product List | Glossary On
Versions: 1 2 3 4 5 6 7 8 9 10 11 12 13 14 15 16 17 18 19 20 21 22 23 24 25 26 27 28 29 30 31 32 33 34 35 36 37 38 39 40 41 42 43 44 45 46 47 48 49 50
000
ASUS44 KLCH 292210
RWRLCH
REGIONAL WEATHER ROUNDUP
NATIONAL WEATHER SERVICE LAKE CHARLES LA
500 PM CDT WED MAR 29 2017

Note: "fair" indicates few or no clouds below 12,000 feet with no
significant weather and/or obstructions to visibility.


ACROSS SOUTHEAST TEXAS

CITY           SKY/WX    TMP DP  RH WIND       PRES   REMARKS
BEAUMONT       LGT RAIN  74  70  87 SE23G30   29.74F
BEAUMONT CITY  TSTM     N/A N/A N/A SE14G20   29.76R
ORANGE         CLOUDY    75  71  87 S14G24    29.78S
JASPER         LGT RAIN  67  65  92 N6        29.80S
$$

ACROSS CENTRAL LOUISIANA

CITY           SKY/WX    TMP DP  RH WIND       PRES   REMARKS
LEESVILLE      TSTM      74  66  76 SE8       29.78S
FULLERTON      TSTM      76  67  73 VRB6      29.75F
ALEXANDRIA INT LGT RAIN  77  66  68 SE13      29.76F
ESLER FIELD    PTSUNNY   79  66  64 SE7       29.82R
DERIDDER       CLOUDY    75  69  82 SE12      29.82R
OAKDALE        CLOUDY    77  66  69 S7G17     29.82R
OPELOUSAS      MOCLDY    79  65  64 MISG      29.82F
$$

ACROSS SOUTHWEST AND SOUTH CENTRAL LOUISIANA

CITY           SKY/WX    TMP DP  RH WIND       PRES   REMARKS
SULPHUR        CLOUDY    76  69  79 SE25G40   29.77F
LAKE CHARLES   CLOUDY    76  68  76 SE24G32   29.78S
CHENNAULT INT  PTSUNNY   75  68  78 SE22G28   29.79F
CAMERON PHI    PTCLDY    75  72  88 SE17G29   29.78S FOG
DEQUINCY       CLOUDY    75  67  77 SE13G20   29.78S
JENNINGS       MOCLDY    76  68  74 SE13G21   29.81S
LAFAYETTE      PTSUNNY   80  68  66 S15G22    29.84S
NEW IBERIA     LGT RAIN  78  67  68 S20G29    29.84F
ABBEVILLE      CLOUDY    75  73  94 SE14G26   29.83F
PATTERSON      PTSUNNY   77  69  76 SE14G21   29.87F
SALT POINT       N/A     75  69  81 SE10G21   29.85F
$$

SELECTED SITES ACROSS THE REGION

CITY           SKY/WX    TMP DP  RH WIND       PRES   REMARKS
HOUSTON BUSH   CLOUDY    76  70  82 E5        29.71F
HOUSTON HOBBY  PTSUNNY   79  69  71 W5        29.71S
GALVESTON      LGT RAIN  76  73  91 S18       29.73R FOG
COLLEGE STAT   MOSUNNY   81  58  45 W10       29.72F
CONROE         MOSUNNY   78  68  71 SE7       29.73R
HUNTSVILLE     PTSUNNY   80  65  59 VRB5      29.73R
LUFKIN         PTSUNNY   72  64  76 S9        29.76R
SHREVEPORT     CLOUDY    75  64  68 S6        29.75R
MONROE         CLOUDY    79  63  57 S14G23    29.78F
NATCHEZ MS     NOT AVBL
BATON ROUGE    CLOUDY    82  64  54 S16G23    29.86S
N.O. INTL ARPT PTSUNNY   80  66  62 SE17G25   29.89F
SLIDELL        CLOUDY    78  67  68 SE12G20   29.90F
$$

MARINE REPORTS

STATION/POSITION TIME  SKY/WX   TEMP    WIND        PRES    VSBY
                                AIR SEA DIR/SP/G
                 (UTC)          (F)     (DEG/KT/KT) (MB)    (MI)
BUOY 30 S HIGH I 2150            73 72  150/ 19/ 23 1006.2R
WVE H/P(F/S)=  7/ 9

SEA RIM ST PARK  2200            74     140/ 16/ 20 1007.5F
PORT ARTHUR      2148               74  150/ 16/ 24 1007.0F
SABINE PASS N    2148            74 77  140/ 21/ 28 1008.7F
TEXAS POINT      NOT AVBL
CALCASIEU PASS   2148            74 76  160/ 16/ 24   N/A
LK CHARLES BEACH 2148            76 73              1009.1R
MARSH ISLAND     2100            74                   N/A
FRESH WATER LOCK 2148            74 77  130/ 13/ 20 1009.5F
AMERADA PASS     2148            75 65  130/ 10/ 15 1011.1F
$$



USA.gov is the U.S. government's official web portal to all federal, state and local government web resources and services.